Tracking 19149 objects as of 21-Apr-2018
HD Live streaming from Space Station
objects crossing your sky now

FENGYUN 1C DEB

Track FENGYUN 1C DEB now!
10-day predictions


NORAD ID: 32095
Int'l Code: 1999-025CQM
Perigee: 795.7 km
Apogee: 914.7 km
Inclination: 98.9 °
Period: 101.9 minutes
Semi major axis: 7226 km
RCS: 0.0116 m2 (small)
Launch date: May 10, 1999
Source: People's Republic of China (PRC)
Launch site: Taiyaun Space Center, China (TSC)

Note: This is SATELLITE DEBRIS
aabbcc
Your satellite tracking list
Your tracking list is empty




NASA's NSSDC Master Catalog

Two Line Element Set (TLE):
1 32095U 99025CQM 18109.88736459  .00000087  00000-0  67688-4 0  9997
2 32095  98.9195 139.2355 0082329 129.0976 231.7555 14.13320813554567
Source of the keplerian elements: AFSPC